sat.trackr.live / text

‹ back to catalog

O3B FM19

NORAD 44113 · 2019-020B

PAYLOAD ACTIVE UNKNOWN

§ Identity

Operator
Country
O3B
Launch date
2019-04-04
Launch site
FRGUI
Launch vehicle
Mass (kg)
RCS (m²)

Purposes: comms

External: N2YO · Heavens-Above · Gunter

§ Orbital elements

Epoch: 2026-05-24T20:26:39.721632Z

Period
287.93 min
Inclination
0.0664°
Eccentricity
0.0004001
Mean motion
5.00116164 rev/d
Perigee alt
8,060.1 km
Apogee alt
8,071.7 km
Semi-major
14,444.0 km
B*
0.0000e+0
RAAN
342.0297°
Arg perigee
66.6339°
Mean anomaly
311.3702°
Rev number
13,027

§ Raw data

O3B FM191 44113U 19020B   26144.85184863 -.00000024  00000+0  00000+0 0  99902 44113   0.0664 342.0297 0004001  66.6339 311.3702  5.00116164130270

JSON: /api/v1/satellites/44113 · /tle

For live sub-satellite position, see the globe view (requires WebGL).

§ Visibility from observer

Set your observer location to see the next 7 days of passes ≥ 10°. The values pass through the URL so the page stays shareable.

No JS? Fill the form by hand. The geolocation button needs JavaScript.